Regional Weather Roundup
Issued by NWS

Home | Current Version | Previous Version | Graphics & Text | Print | Product List | Glossary On
Versions: 1 2 3 4 5 6 7 8 9 10 11 12 13 14 15 16 17 18 19 20 21 22 23 24 25 26 27 28 29 30 31 32 33 34 35 36 37 38 39 40 41 42 43 44 45 46 47 48 49 50
259
ASUS44 KLIX 240210
RWRLA
LOUISIANA WEATHER ROUNDUP
NATIONAL WEATHER SERVICE NEW ORLEANS LA
900 PM CDT THU OCT 23 2014

NOTE: "FAIR" INDICATES FEW OR NO CLOUDS BELOW 12,000 FEET WITH NO
      SIGNIFICANT WEATHER AND/OR OBSTRUCTIONS TO VISIBILITY.
      SKY/WX - SKY CONDITION AND SIGNIFICANT WEATHER.
      TMP - AIR TEMPERATURE.    DP   - DEWPOINT TEMPERATURE.
      RH  - RELATIVE HUMIDITY.  PRES - PRESSURE.
      HX  - HEAT INDEX.         WCI  - WIND CHILL INDEX.

*  THESE STATIONS ARE NOT NWS OR FAA STATIONS AND ARE NOT UNDER
   NWS QUALITY CONTROL.

LAZ040-048-061>063-065-066-069-240300-
SOUTHEAST LOUISIANA

CITY           SKY/WX    TMP DP  RH WIND       PRES   REMARKS
N.O. AUDUBON     N/A     66  58  75 MISG        N/A
N.O. INTL ARPT CLOUDY    66  51  58 CALM      30.07R
N.O. LAKEFRONT CLOUDY    70  49  47 CALM      30.08R
N.O. DOWNTOWN* FAIR      70  46  43 CALM      30.08R
SLIDELL        CLOUDY    63  53  70 CALM      30.08R
BATON ROUGE    CLEAR     60  52  74 CALM      30.10R
BOOTHVILLE     PTCLDY    69  58  67 NE5       30.07R
BELLE CHASSE   CLOUDY    60  54  80 CALM      30.07R
BOGALUSA*      FAIR      60  49  67 CALM      30.10S
NEW ROADS*     FAIR      56  52  85 N6        30.11R
GONZALES*      FAIR      58  57  99 N5        30.08S
HAMMOND*       MOCLDY    61  50  67 CALM      30.10R
HOUMA*         CLOUDY    59  53  80 E3        30.07S
PORT FOURCHON* CLEAR     68  55  64 NE7       30.11R

$$

LAZ041-044-053-054-240300-
SOUTHWEST LOUISIANA

CITY           SKY/WX    TMP DP  RH WIND       PRES   REMARKS
LAKE CHARLES   CLEAR     60  53  77 NE6       30.11R
LAFAYETTE      CLEAR     61  51  70 N9        30.10R
PATTERSON      PTCLDY    63  55  77 N3        30.11R
SALT POINT       N/A     64  56  75 CALM      30.08R
NEW IBERIA     CLEAR     60  52  74 N7        30.10R
CHENAULT AIRPK CLEAR     59  54  82 NE3       30.12R

$$

LAZ027-028-240300-
CENTRAL LOUISIANA

CITY           SKY/WX    TMP DP  RH WIND       PRES   REMARKS
FORT POLK      CLEAR     57  52  82 NE5       30.12R
ALEXANDRIA INT CLEAR     54  51  90 N3        30.12R
ALEXANDRIA     CLEAR     50  50 100 CALM      30.13R

$$

LAZ001-002-240300-
NORTHWEST LOUISIANA

CITY           SKY/WX    TMP DP  RH WIND       PRES   REMARKS
SHREVEPORT     PTCLDY    58  50  75 CALM      30.12S
BARKSDALE AFB  CLEAR     56  50  80 CALM      30.13R
DTN SHREVEPORT CLEAR     57  50  77 E3        30.12S

$$

LAZ014-016-240300-
NORTHEAST LOUISIANA

CITY           SKY/WX    TMP DP  RH WIND       PRES   REMARKS
MONROE         CLEAR     52  50  93 NE3       30.15R
TALLULAH       CLEAR     51  48  89 N3        30.14R

$$




USA.gov is the U.S. government's official web portal to all federal, state and local government web resources and services.